Theta_e
324 325 322 322 321 320 318 320 320 323 326 332 331 327 327 329 331 342 342 345 344 343 350 355 356 360 362 365 366 365 364 362
324 324 325 323 322 319 318 324 325 324 327 332 331 331 329 331 334 335 339 344 342 343 340 355 358 359 362 366 366 367 367 367
327 325 324 323 321 322 317 319 321 325 327 333 335 331 330 337 337 337 350 347 348 351 348 355 356 359 365 367 367 368 368 368
329 328 327 326 323 321 322 325 322 321 325 331 331 329 336 340 342 346 349 351 348 348 349 348 347 350 361 367 368 368 368 368
334 327 327 330 330 329 325 323 324 326 325 331 329 334 338 342 342 344 350 351 348 343 344 348 346 348 344 365 367 367 367 367
330 331 326 328 329 331 331 329 328 326 330 334 334 335 338 341 340 342 347 351 347 343 337 343 347 343 342 359 362 366 366 366
327 327 327 329 329 330 331 333 333 329 329 334 334 335 336 341 343 344 343 348 346 344 335 334 335 338 346 354 361 360 364 365
335 331 330 331 333 333 333 329 331 330 329 329 337 332 335 339 344 344 344 344 346 345 341 338 336 336 349 359 364 358 358 362
331 330 329 328 329 330 328 330 332 332 330 331 338 335 338 336 340 344 343 342 341 341 340 340 340 346 346 351 356 356 363 358
331 331 333 327 325 327 326 329 330 330 332 334 337 336 335 337 341 341 339 342 340 339 340 340 340 338 340 347 351 358 355 361
329 329 328 329 328 327 327 329 329 330 332 336 337 337 337 337 336 335 333 337 338 340 341 339 339 337 344 342 344 355 360 356
330 332 334 331 330 333 329 327 335 335 336 337 338 340 339 336 335 335 336 339 339 339 339 341 341 341 341 342 348 349 357 360
334 335 334 333 332 333 336 338 336 335 337 338 339 337 334 334 334 336 335 337 339 341 342 342 342 342 344 347 349 350 354 352
332 335 335 333 332 336 334 333 336 333 338 338 336 336 334 334 334 334 334 338 339 342 342 340 339 340 342 344 347 348 347 351
334 333 331 330 332 331 330 332 336 337 337 335 335 334 332 335 336 335 336 339 340 343 343 341 341 341 342 341 344 350 349 348
330 331 334 333 333 332 330 330 331 332 336 336 335 334 333 336 336 336 339 341 342 344 345 344 342 342 341 340 339 342 348 349
331 335 335 334 333 332 331 330 330 329 331 330 329 334 335 334 334 336 338 340 342 343 344 344 342 341 341 341 341 343 344 352
339 334 334 333 331 330 330 330 330 330 330 329 330 328 334 333 333 334 337 337 343 345 343 340 342 342 340 340 343 344 345 351
333 331 330 330 329 329 329 329 329 328 328 330 330 329 331 330 331 332 334 336 345 342 340 340 338 339 338 339 341 344 344 346
Wind_Speed
9 6 9 5 4 9 3 6 5 4 8 10 6 8 8 5 12 13 16 11 18 27 20 31 34 39 37 37 34 36 37 36
8 8 3 6 5 6 4 1 5 9 8 5 5 5 7 9 10 13 9 9 8 2 27 33 32 35 37 38 37 37 34 34
5 4 8 1 4 4 3 5 3 3 7 4 8 7 9 10 10 11 16 12 14 12 13 9 16 36 30 35 33 32 32 31
8 10 6 9 10 8 5 8 3 4 7 5 5 8 13 10 11 17 16 11 9 18 35 24 33 21 15 31 32 34 34 30
12 7 13 7 5 4 3 3 5 3 6 8 6 11 11 13 14 16 16 11 9 8 17 34 12 26 25 25 32 31 31 32
6 8 7 9 13 6 2 3 5 5 4 7 13 15 9 9 13 14 13 9 7 3 9 37 41 15 24 3 28 33 35 32
10 11 13 12 13 10 5 6 1 11 6 4 7 13 14 15 13 14 13 10 5 4 4 16 9 7 18 19 21 31 31 33
5 8 11 11 10 10 13 10 8 10 12 6 4 9 11 11 13 13 11 11 7 1 5 11 17 17 16 11 3 28 25 34
4 9 11 7 8 9 8 7 4 4 8 8 3 7 15 8 12 8 11 7 8 8 7 9 11 10 14 16 17 15 10 22
5 6 7 9 9 8 8 6 9 10 12 6 3 2 11 8 14 12 9 4 2 7 10 5 8 15 16 14 9 17 17 12
4 5 7 8 8 7 6 7 8 7 5 7 12 12 7 11 10 8 6 7 3 6 5 4 7 9 12 16 19 15 17 21
4 5 6 6 9 12 7 5 12 12 15 12 11 6 1 9 12 13 14 11 9 5 5 7 9 10 12 13 13 17 21 23
3 2 4 5 7 9 3 5 8 10 8 11 7 6 2 4 4 8 8 7 6 9 6 4 9 14 17 19 17 18 21 27
2 2 4 7 6 2 5 6 4 6 7 5 7 6 4 4 5 3 4 5 5 7 6 5 7 10 14 19 22 25 27 27
2 2 2 6 4 8 8 5 8 4 3 3 3 6 6 4 1 1 3 3 4 4 3 0 2 7 12 20 24 26 24 27
6 7 9 11 15 16 15 12 9 9 8 5 3 8 8 6 3 2 4 5 2 0 1 3 8 10 13 20 26 28 27 27
4 8 9 13 13 12 15 15 15 16 9 3 9 14 6 5 5 6 8 9 9 6 8 9 11 15 20 23 24 28 26 23
1 5 3 7 12 15 13 11 13 13 14 12 7 11 9 7 11 13 14 19 18 13 7 13 15 17 20 23 25 25 24 19
3 6 6 9 10 12 12 15 17 15 16 16 17 18 19 7 18 25 26 26 14 10 12 17 20 21 23 22 23 29 28 27
Wind_Direction
150 162 139 266 288 237 282 309 358 292 317 341 153 130 122 96 86 98 114 126 167 239 261 178 174 177 181 181 184 188 197 205
22 80 276 187 237 16 342 307 288 302 316 253 153 113 110 82 79 116 151 162 201 274 243 184 170 173 180 180 185 190 192 201
4 182 211 198 246 237 155 156 190 297 290 80 85 101 86 83 67 59 65 70 91 139 314 138 102 167 171 179 183 187 192 198
272 291 267 221 195 182 133 281 243 172 271 227 119 111 100 92 76 72 65 51 54 87 88 14 23 39 192 180 183 188 192 196
332 333 355 358 341 344 345 35 291 122 284 355 74 112 128 106 83 77 70 53 33 60 102 95 355 309 314 185 184 189 192 198
246 263 304 320 322 329 3 44 308 265 34 22 59 61 42 74 85 80 76 65 48 343 125 139 169 227 279 231 191 190 194 200
288 299 298 304 313 322 300 281 351 286 307 200 152 133 138 140 113 93 79 82 58 311 187 194 182 271 335 358 210 198 196 196
311 312 331 328 334 331 321 321 336 312 316 305 189 114 56 47 63 99 104 105 138 104 300 243 244 268 321 346 229 210 210 205
308 323 324 337 316 316 310 282 269 301 287 311 97 183 119 94 82 58 79 53 115 171 204 249 266 309 345 352 357 320 280 238
258 292 285 258 276 301 313 297 291 341 325 23 192 148 90 102 113 108 89 199 170 112 107 61 341 323 325 336 305 302 296 290
219 244 268 305 292 304 321 309 327 314 313 22 16 68 74 122 116 134 105 216 138 87 119 190 266 300 315 319 329 318 317 293
219 226 255 256 329 351 347 334 355 17 358 68 62 82 46 138 150 174 164 110 89 43 9 9 336 302 320 317 321 329 332 316
256 261 298 24 5 337 348 276 339 8 43 2 96 138 132 52 69 97 97 107 113 111 93 38 8 355 345 338 330 331 329 325
323 342 302 18 30 59 236 321 10 355 40 28 359 34 124 143 100 64 289 158 142 127 110 53 359 332 328 325 321 319 317 318
37 242 329 21 23 353 5 3 12 344 101 108 1 292 298 304 41 105 289 244 142 130 138 16 336 332 323 311 315 312 308 311
28 352 357 44 20 10 1 354 354 4 359 348 324 289 283 309 332 64 341 320 277 134 285 301 310 311 295 295 299 299 302 301
289 31 345 4 6 352 343 345 351 344 332 253 306 312 322 318 328 315 289 284 276 266 272 282 298 297 298 296 290 287 293 289
43 27 354 315 329 329 333 332 327 328 323 322 282 276 264 264 276 282 275 270 255 243 246 278 287 291 294 294 289 280 283 280
351 324 2 322 323 316 309 307 306 309 312 313 320 318 301 249 250 252 253 260 226 215 249 271 286 288 294 293 291 281 272 270